N7DRD Ocean Park WA US current weather conditions

sailwx.info

Wind from 208 at 6 knots gusting 8

Air temperature 14.4° C
Dewpoint 14.3° C

Last reported at 2019-Oct-22 06:00 UTC.
Time now 2019-Oct-22 06:24 UTC

Location: N 46°29' W 124°03'.
View on Google Maps.

See reports from other nearby stations

  
Tides and Currents Weather Stations Pressure Air Temp Water Temp Dewpoint Dewpoint Depression Visibility Wind Speed Wind Dir Waves Ship Positions
date/time (UTC)wind fromknots sea level pressurealtimeterstation pressurevisibilityair tempwater tempwave heightnotes
2019-Oct-22 06:00 208 6 gusting 8 14.4
2019-Oct-22 05:40 214 5 gusting 11 14.4
2019-Oct-22 05:30 202 5 gusting 10 14.4
2019-Oct-22 04:40 200 6 gusting 11 14.4
2019-Oct-22 04:10 258 6 gusting 10 13.9
2019-Oct-22 04:00 190 5 gusting 8 13.9
2019-Oct-22 03:50 213 6 gusting 13 13.9
2019-Oct-22 03:40 225 8 gusting 13 13.9
2019-Oct-22 03:30 200 6 gusting 12 13.9
2019-Oct-22 03:20 196 6 gusting 10 13.9
2019-Oct-22 03:10 187 7 gusting 13 13.9
2019-Oct-22 03:00 218 6 gusting 12 13.9
2019-Oct-22 02:50 353 5 gusting 8 13.9
2019-Oct-22 02:30 140 5 gusting 7 13.9
2019-Oct-22 02:20 265 5 gusting 8 13.9
2019-Oct-22 02:00 120 6 gusting 8 13.9
2019-Oct-22 01:40 215 6 gusting 8 13.9
2019-Oct-22 01:10 245 6 gusting 7 13.9
2019-Oct-22 01:00 260 5 gusting 10 13.9
2019-Oct-22 00:50 272 6 gusting 10 13.9
2019-Oct-22 00:30 149 6 gusting 10 13.9
2019-Oct-22 00:00 259 6 gusting 7 13.9
2019-Oct-21 23:50 250 5 gusting 6 13.9
2019-Oct-21 23:30 194 7 gusting 7 13.9
2019-Oct-21 23:20 235 6 gusting 13 13.9
2019-Oct-21 23:10 221 7 gusting 11 13.9
2019-Oct-21 22:50 144 11 gusting 12 14.4
2019-Oct-21 22:40 344 7 gusting 11 14.4
2019-Oct-21 22:30 204 7 gusting 12 13.9
2019-Oct-21 22:10 256 7 gusting 12 13.9
2019-Oct-21 22:00 155 10 gusting 13 13.9
2019-Oct-21 21:40 187 7 gusting 10 13.9
2019-Oct-21 21:30 214 5 gusting 7 13.9
2019-Oct-21 21:00 156 8 gusting 11 13.3
2019-Oct-21 20:50 244 6 gusting 10 13.3
2019-Oct-21 20:30 231 7 gusting 8 13.3
2019-Oct-21 20:20 258 7 gusting 8 13.3
2019-Oct-21 20:10 225 6 gusting 8 13.3
2019-Oct-21 20:00 220 6 gusting 8 13.3
2019-Oct-21 19:30 188 6 gusting 14 13.3
2019-Oct-21 19:00 255 6 gusting 10 13.3
2019-Oct-21 18:50 237 8 gusting 10 13.3
2019-Oct-21 18:10 178 8 gusting 10 13.9
2019-Oct-21 18:00 206 8 gusting 13 13.9
2019-Oct-21 17:40 203 6 gusting 12 13.3
2019-Oct-21 17:00 210 6 gusting 10 13.3
2019-Oct-21 16:50 231 5 gusting 8 13.3
2019-Oct-21 16:40 203 8 gusting 10 13.3
2019-Oct-21 16:20 168 5 gusting 6 12.8
2019-Oct-21 16:00 222 4 gusting 7 12.8
2019-Oct-21 15:50 335 4 gusting 5 12.8
2019-Oct-21 15:40 223 4 gusting 8 12.8
2019-Oct-21 15:20 213 4 gusting 6 13.3
2019-Oct-21 15:10 271 6 gusting 7 13.3
2019-Oct-21 14:40 192 4 gusting 5 12.8
2019-Oct-21 14:30 200 4 gusting 7 12.8
2019-Oct-21 14:10 202 4 gusting 7 12.8
2019-Oct-21 14:00 185 3 gusting 6 12.8
2019-Oct-21 13:50 207 2 gusting 4 12.2
2019-Oct-21 13:40 193 5 gusting 5 12.2
2019-Oct-21 13:20 178 4 gusting 5 12.2
2019-Oct-21 12:50 200 4 gusting 4 12.2
2019-Oct-21 12:30 199 1 gusting 2 12.2
2019-Oct-21 12:20 188 12.2
2019-Oct-21 12:00 213 12.2
2019-Oct-21 11:50 189 12.2
2019-Oct-21 11:30 181 12.2
2019-Oct-21 11:20 189 12.2
2019-Oct-21 11:00 178 0 gusting 2 12.2
2019-Oct-21 10:50 189 12.2
2019-Oct-21 10:40 191 12.2
2019-Oct-21 10:00 197 0 gusting 2 12.2
2019-Oct-21 09:40 210 12.2
2019-Oct-21 09:30 197 1 gusting 2 12.2
2019-Oct-21 09:00 211 12.2
2019-Oct-21 08:30 203 11.7
2019-Oct-21 08:20 167 0 gusting 2 12.2
2019-Oct-21 08:10 181 12.2
2019-Oct-21 07:50 191 1 gusting 1 12.2
2019-Oct-21 07:40 210 1 gusting 2 12.2
2019-Oct-21 07:30 203 12.2
2019-Oct-21 07:20 245 12.2
2019-Oct-21 07:10 191 12.2
2019-Oct-21 07:00 211 0 gusting 4 12.2
2019-Oct-21 06:50 189 12.2
2019-Oct-21 06:40 195 12.2
2019-Oct-21 06:00 185 12.2
2019-Oct-21 05:50 182 1 gusting 1 11.7
2019-Oct-21 05:30 233 11.7
2019-Oct-21 05:20 208 11.7
2019-Oct-21 05:10 160 12.2
2019-Oct-21 05:00 183 1 gusting 2 12.2
2019-Oct-21 04:40 208 2 gusting 4 12.2
2019-Oct-21 04:30 235 11.7
2019-Oct-21 04:20 223 11.7
2019-Oct-21 04:10 223 11.7
2019-Oct-21 03:40 178 11.1
2019-Oct-21 03:00 321 11.1
2019-Oct-21 02:50 290 11.1
2019-Oct-21 02:40 222 11.1
2019-Oct-21 02:30 245 11.7
2019-Oct-21 02:10 258 11.7
2019-Oct-21 02:00 257 11.1
2019-Oct-21 01:50 245 11.7
2019-Oct-21 01:10 250 11.7
2019-Oct-21 01:00 267 12.2
2019-Oct-21 00:20 250 12.8
2019-Oct-21 00:00 290 13.3
2019-Oct-20 23:30 300 13.9
2019-Oct-20 23:20 283 13.9
2019-Oct-20 23:10 287 13.9
2019-Oct-20 23:00 290 4 gusting 4 13.9
2019-Oct-20 22:50 261 13.9
2019-Oct-20 22:30 290 2 gusting 4 13.3
2019-Oct-20 21:50 286 4 gusting 4 13.9
2019-Oct-20 21:30 293 3 gusting 10 13.3
2019-Oct-20 21:20 290 4 gusting 6 13.3
2019-Oct-20 21:10 290 7 gusting 11 13.3
2019-Oct-20 20:20 201 8 gusting 8 11.7
2019-Oct-20 20:00 205 11 gusting 14 11.7
2019-Oct-20 19:50 268 6 gusting 17 11.7
2019-Oct-20 19:40 200 10 gusting 18 11.7
2019-Oct-20 19:10 177 13 gusting 13 11.7
2019-Oct-20 18:50 212 13 gusting 14 11.1
2019-Oct-20 18:40 204 14 gusting 15 11.1
2019-Oct-20 18:30 200 12 gusting 12 11.1
2019-Oct-20 18:10 186 11 gusting 12 11.1
2019-Oct-20 17:50 184 8 gusting 12 11.1
2019-Oct-20 17:30 189 7 gusting 8 10.6
2019-Oct-20 17:20 193 8 gusting 11 10.6
2019-Oct-20 17:10 200 10 gusting 11 10.6
2019-Oct-20 17:00 158 8 gusting 12 10.6
2019-Oct-20 16:40 178 6 gusting 11 10.6
2019-Oct-20 16:20 178 8 gusting 10 10.0
2019-Oct-20 16:10 188 5 gusting 10 10.0
2019-Oct-20 16:00 195 6 gusting 10 10.0
2019-Oct-20 15:50 203 6 gusting 7 10.0
2019-Oct-20 15:30 187 5 gusting 6 9.4
2019-Oct-20 15:20 200 6 gusting 11 9.4
2019-Oct-20 15:00 161 7 gusting 8 9.4
2019-Oct-20 14:30 198 5 gusting 5 9.4
2019-Oct-20 14:10 164 3 gusting 4 9.4
2019-Oct-20 13:50 174 4 gusting 4 9.4
2019-Oct-20 13:10 146 3 gusting 4 10.0
2019-Oct-20 12:40 156 4 gusting 5 10.0
2019-Oct-20 12:20 178 5 gusting 5 10.0
2019-Oct-20 12:10 200 4 gusting 6 10.0
2019-Oct-20 12:00 194 8 gusting 7 10.6
2019-Oct-20 11:50 188 7 gusting 8 10.0
2019-Oct-20 11:30 200 6 gusting 7 10.0
2019-Oct-20 11:00 183 5 gusting 6 9.4
2019-Oct-20 10:50 193 5 gusting 5 9.4
2019-Oct-20 10:40 191 4 gusting 5 9.4
2019-Oct-20 10:20 200 4 gusting 5 8.9
2019-Oct-20 10:10 176 8.9
2019-Oct-20 10:00 178 1 gusting 4 8.9
2019-Oct-20 09:50 200 8.9
2019-Oct-20 09:40 189 4 gusting 4 8.9
2019-Oct-20 09:30 190 2 gusting 4 8.9
2019-Oct-20 09:20 185 8.9
2019-Oct-20 09:00 200 4 gusting 6 9.4
2019-Oct-20 08:50 199 5 gusting 4 9.4
2019-Oct-20 08:30 186 6 gusting 6 9.4
2019-Oct-20 08:10 178 4 gusting 6 8.9
2019-Oct-20 08:00 174 6 gusting 6 9.4
2019-Oct-20 07:40 178 5 gusting 5 8.9
2019-Oct-20 07:30 198 5 gusting 5 8.9
2019-Oct-20 07:10 200 5 gusting 4 8.9
2019-Oct-20 06:40 178 3 gusting 4 8.9
2019-Oct-20 06:30 188 3 gusting 4 8.9
2019-Oct-20 06:20 186 2 gusting 2 8.9